KUIPER-00520

导读

KUIPER-00520(NORAD编号69601)是亚马逊柯伊伯(Project Kuiper)低轨通信星座的组网卫星,于2025年9月随项目第五次发射任务、由ULA Atlas V火箭从卡纳维拉尔角升空,属此次部署的27颗卫星之一。 该星初始部署高度465公里,后续将抬升至星座预定工作轨道,主要承担全球高速互联网接入服务验证与组网任务,为后续星座规模化部署及航空(如捷蓝航空2027年机上互联计划)等场景商用落地提供支撑,是柯伊伯项目完成FCC要求的2026年7月前部署半数卫星节点的重要组成部分。

Basic Information
目录编号:
69601
目录名称:
KUIPER-00520
国际标识:
2026-140K
轨道中心:
EARTH
卫星名称:
KUIPER-00520
卫星全名:
KUIPER-00520
卫星状态:
在轨 (已飞行70 天)
发射日期:
2026-06-17 UTC
国别 :
美国 (US)
星等 :
--
Orbit Information
数据来源 国际轨道数据
星历时间: 2026-08-26T12:00:02+0800
7小时前
查看轨道信息
半长轴: 7000.965km
偏心率: 0.0000377
轨道倾角: 51.900°
近地点辐角 204.416°
升交点赤经 67.784°
平近点角 234.661°
近地点: 622.564km
远地点: 623.092km
周期: 97.162分钟
每日圈数: 14.820605
Detailed Information
使用方式:
暂无
2D Orbit Map
3D Orbit Map
Orbit Altitude Analysis Chart
Orbit Inclination Analysis Chart
Orbit Comprehensive Analysis Chart
View Comprehensive Chart